Weather History for Cozumel, Mexico

Change the Weather History Date:

Saturday, January 11, 2014

  Actual Average Record
Temperature  
Mean Temperature 73 °F -  
Max Temperature 80 °F 80 °F - ()
Min Temperature 66 °F 69 °F - ()
Cooling Degree Days 8    
Growing Degree Days 23 (Base 50)    
Moisture  
Dew Point 70 °F    
Average Humidity 92    
Maximum Humidity 100    
Minimum Humidity 74    
Precipitation  
Precipitation 0.00 in - - ()
Sea Level Pressure  
Sea Level Pressure 30.03 in    
Wind  
Wind Speed 4 mph ()    
Max Wind Speed 14 mph    
Max Gust Speed -    
Visibility 7.4 miles    
Events      
T = Trace of Precipitation, MM = Missing Value Source: Averaged Metar Reports

Daily Weather History Graph

Daily Weather History Graph

Search for Another Location

Airport:

Trip Planner

Search our weather history database for the weather conditions in past years. The results will help you decide how hot, cold, wet, or windy it might be!

Date:

Astronomy

Jan. 11, 2014 Rise Set
Actual Time 6:26 AM CST 5:25 PM CST
Civil Twilight 6:02 AM CST 5:49 PM CST
Nautical Twilight 5:35 AM CST 6:16 PM CST
Astronomical Twilight 5:08 AM CST 6:43 PM CST
Moon 2:04 PM CST (1/11) 2:37 AM CST (1/11)
Length of Visible Light 11h 46m
Length of Day
10h 59m
Waxing Gibbous, 83% of the Moon is Illuminated
Jan 11
Waxing Gibbous
Jan 15
Full
Jan 23
Last Quarter
Jan 30
New
Feb 6
First Quarter

Hourly Weather History & Observations

Time (CST) Temp. Heat Index Dew Point Humidity Pressure Visibility Wind Dir Wind Speed Gust Speed Precip Events Conditions
12:41 AM 68.0 °F - 68.0 °F 100% 29.98 in 7.0 mi SE 4.6 mph - N/A   Scattered Clouds
1:40 AM 69.8 °F - 69.8 °F 100% 29.97 in 7.0 mi SE 5.8 mph - N/A   Partly Cloudy
2:46 AM 69.8 °F - 69.8 °F 100% 29.99 in 7.0 mi Calm Calm - N/A   Partly Cloudy
3:40 AM 69.8 °F - 69.8 °F 100% 29.97 in 7.0 mi Calm Calm - N/A   Partly Cloudy
4:48 AM 68.0 °F - 68.0 °F 100% 29.99 in 7.0 mi Calm Calm - N/A   Mostly Cloudy
5:47 AM 68.0 °F - 68.0 °F 100% 29.99 in 7.0 mi Calm Calm - N/A   Mostly Cloudy
6:42 AM 69.8 °F - 69.8 °F 100% 30.02 in 7.0 mi Calm Calm - N/A   Mostly Cloudy
7:40 AM 71.6 °F - 71.6 °F 100% 30.04 in 8.0 mi SSE 4.6 mph - N/A   Scattered Clouds
8:40 AM 75.2 °F - 71.6 °F 89% 30.10 in 8.0 mi SE 9.2 mph - N/A   Mostly Cloudy
9:40 AM 77.0 °F - 69.8 °F 78% 30.07 in 8.0 mi SE 13.8 mph - N/A   Mostly Cloudy
10:40 AM 77.0 °F - 69.8 °F 78% 30.06 in 8.0 mi SE 10.4 mph - N/A   Mostly Cloudy
11:40 AM 78.8 °F - 71.6 °F 78% 30.01 in 8.0 mi SSE 8.1 mph - N/A   Mostly Cloudy
12:40 PM 80.6 °F 84.6 °F 71.6 °F 74% 30.00 in 8.0 mi SSE 6.9 mph - N/A   Mostly Cloudy
1:40 PM 78.8 °F - 71.6 °F 78% 29.99 in 8.0 mi SSE 13.8 mph - N/A   Scattered Clouds
2:43 PM 78.8 °F - 71.6 °F 78% 30.01 in 8.0 mi SSE 6.9 mph - N/A   Scattered Clouds
3:49 PM 77.0 °F - 71.6 °F 83% 29.99 in 8.0 mi SSE 8.1 mph - N/A   Scattered Clouds
4:40 PM 75.2 °F - 71.6 °F 89% 30.00 in 8.0 mi SSE 3.5 mph - N/A   Scattered Clouds
5:47 PM 73.4 °F - 69.8 °F 88% 30.00 in 7.0 mi Calm Calm - N/A   Partly Cloudy
6:46 PM 69.8 °F - 69.8 °F 100% 30.05 in 7.0 mi Calm Calm - N/A   Partly Cloudy
7:49 PM 69.8 °F - 69.8 °F 100% 30.06 in 7.0 mi Calm Calm - N/A   Partly Cloudy
8:49 PM 68.0 °F - 68.0 °F 100% 30.11 in 7.0 mi Calm Calm - N/A   Scattered Clouds
9:47 PM 66.2 °F - 66.2 °F 100% 30.08 in 7.0 mi Calm Calm - N/A   Scattered Clouds
10:47 PM 66.2 °F - 66.2 °F 100% 30.07 in 7.0 mi Calm Calm - N/A   Scattered Clouds
11:42 PM 66.2 °F - 66.2 °F 100% 30.05 in 7.0 mi Calm Calm - N/A   Scattered Clouds